GW3062 Weather Reports


time (UTC)temp
C
wind
direction
speed
KPH
gust
KPH
rain 1hr
cm
rain 24hr
cm
rain mn
cm
humidity
%
barometer
mb
20260906104019 21 91 0.0 0.0 0.00 0.84 0.00 99 1010.9
20260906103540 21 91 0.0 0.0 0.00 0.84 0.00 99 1010.8
20260906103040 21 91 0.0 1.6 0.00 0.84 0.00 99 1010.9
20260906102519 20 91 0.0 1.6 0.00 0.84 0.00 99 1010.9
20260906102018 20 94 0.0 0.0 0.00 0.84 0.00 99 1010.9
20260906101518 20 94 0.0 0.0 0.00 0.84 0.00 99 1010.8
20260906101018 20 94 0.0 0.0 0.00 0.84 0.00 99 1010.8
20260906100540 20 103 0.0 0.0 0.00 0.84 0.00 99 1010.6
20260906100018 20 103 0.0 0.0 0.00 0.84 0.00 99 1010.6
20260906095018 20 103 0.0 1.6 0.00 0.84 0.00 98 1010.2
20260906094519 20 103 0.0 1.6 0.00 0.84 0.00 98 1010.2
20260906094018 20 103 0.0 0.0 0.00 0.84 0.00 99 1010.2
20260906093540 20 103 0.0 1.6 0.00 0.84 0.00 99 1010.2
20260906093018 20 103 0.0 1.6 0.00 0.84 0.00 99 1010.2
20260906092518 20 103 0.0 0.0 0.00 0.84 0.00 99 1010.2
20260906092018 20 103 0.0 1.6 0.00 0.84 0.00 99 1010.2
20260906091518 20 103 0.0 1.6 0.00 0.84 0.00 99 1010.1
20260906091040 20 103 0.0 0.0 0.00 0.84 0.00 99 1010.1
20260906090518 20 103 0.0 0.0 0.00 0.84 0.00 99 1010.0
20260906090040 20 103 0.0 0.0 0.00 0.84 0.00 99 1010.0
20260906085518 20 103 0.0 0.0 0.00 0.84 0.00 99 1010.1
20260906085041 20 103 0.0 0.0 0.00 0.84 0.00 99 1010.0
20260906084518 20 103 0.0 1.6 0.00 0.84 0.00 99 1009.9
20260906084018 21 103 0.0 1.6 0.00 0.84 0.00 99 1009.8
20260906083518 21 103 0.0 0.0 0.00 0.84 0.00 99 1009.9
20260906083018 20 103 0.0 0.0 0.00 0.84 0.00 99 1010.0
20260906082540 20 103 0.0 0.0 0.00 0.84 0.00 99 1010.0
20260906082018 20 103 0.0 0.0 0.00 0.84 0.00 98 1010.0
20260906081519 21 103 0.0 0.0 0.00 0.84 0.00 98 1009.8
20260906081040 21 103 0.0 1.6 0.00 0.84 0.00 98 1009.6
20260906080540 21 103 0.0 1.6 0.00 0.84 0.00 99 1009.5
20260906080040 21 107 0.0 1.6 0.00 0.84 0.00 99 1009.4
20260906075019 21 107 0.0 0.0 0.00 0.84 0.00 98 1009.3
20260906074518 21 107 0.0 0.0 0.00 0.84 0.00 98 1009.2
20260906073542 21 107 0.0 1.6 0.00 0.84 0.00 99 1009.2
20260906073019 21 107 0.0 1.6 0.00 0.84 0.00 99 1009.3
20260906072518 21 111 0.0 3.2 0.00 0.84 0.00 99 1009.3
20260906072020 21 108 0.0 1.6 0.00 0.84 0.00 99 1009.4
20260906071518 21 105 0.0 1.6 0.00 0.84 0.00 99 1009.5
20260906071018 21 75 0.0 0.0 0.00 0.84 0.00 99 1009.6
20260906070518 21 75 0.0 0.0 0.00 0.84 0.00 99 1009.6
20260906070019 21 75 0.0 0.0 0.00 0.84 0.00 99 1009.8
20260906065518 21 75 0.0 0.0 0.00 0.84 0.00 99 1009.7
20260906065018 21 75 0.0 0.0 0.00 0.84 0.00 99 1009.7
20260906064518 21 75 0.0 0.0 0.00 0.84 0.00 99 1009.8
20260906064019 21 75 0.0 0.0 0.00 0.84 0.00 98 1009.9
20260906063541 21 75 0.0 1.6 0.00 0.84 0.00 98 1010.0
20260906063019 21 75 0.0 1.6 0.00 0.84 0.00 98 1010.0
20260906062518 21 75 0.0 1.6 0.00 0.84 0.00 99 1010.2
20260906062019 21 75 0.0 0.0 0.00 0.84 0.00 98 1010.3
20260906061541 21 75 0.0 0.0 0.00 0.84 0.00 99 1010.4
20260906061018 21 75 0.0 0.0 0.00 0.84 0.00 98 1010.2
20260906060518 21 75 0.0 0.0 0.00 0.84 0.00 98 1010.3
20260906060019 21 75 0.0 0.0 0.00 0.84 0.00 98 1010.3
20260906055542 21 75 0.0 0.0 0.00 0.84 0.00 98 1010.3
20260906055018 21 75 0.0 0.0 0.00 0.84 0.00 98 1010.3
20260906054518 21 75 0.0 0.0 0.00 0.84 0.00 98 1010.3
20260906054018 21 75 0.0 1.6 0.00 0.84 0.00 98 1010.3
20260906053519 21 75 0.0 1.6 0.00 0.84 0.00 98 1010.3
20260906053041 21 75 0.0 1.6 0.00 0.84 0.00 98 1010.2
20260906052518 21 75 0.0 0.0 0.00 0.84 0.00 98 1010.1
20260906052019 21 75 0.0 0.0 0.00 0.84 0.00 98 1010.0
20260906051519 21 75 0.0 0.0 0.00 0.84 0.00 98 1010.2
20260906051041 21 75 0.0 0.0 0.00 0.84 0.00 98 1010.1
20260906050519 21 75 0.0 0.0 0.00 0.84 0.00 98 1010.2
20260906050019 21 75 0.0 0.0 0.00 0.84 0.00 98 1010.2
20260906045541 21 75 0.0 0.0 0.00 0.84 0.00 98 1010.3
20260906045019 21 75 0.0 0.0 0.00 0.84 0.00 98 1010.3
20260906044519 21 75 0.0 0.0 0.00 0.84 0.00 98 1010.4
20260906044019 21 75 0.0 0.0 0.00 0.84 0.00 98 1010.4
20260906043519 21 75 0.0 0.0 0.00 0.84 0.00 98 1010.4
20260906042519 21 75 0.0 0.0 0.00 0.84 0.00 98 1010.6
20260906042042 21 75 0.0 0.0 0.00 0.84 0.00 98 1010.7
20260906041519 21 75 0.0 0.0 0.00 0.84 0.00 98 1010.7
20260906041019 21 75 0.0 0.0 0.00 0.84 0.00 98 1010.7
20260906040519 21 75 0.0 0.0 0.00 0.84 0.00 98 1010.8
20260906035529 21 75 0.0 0.0 0.00 0.84 0.84 98 1010.8
20260906035006 21 75 0.0 0.0 0.00 0.84 0.84 98 1010.6
20260906034506 21 75 0.0 0.0 0.00 0.84 0.84 98 1010.6
20260906034006 21 75 0.0 0.0 0.00 0.84 0.84 98 1010.6
20260906033508 21 75 0.0 0.0 0.00 0.84 0.84 98 1010.6
20260906033007 21 75 0.0 0.0 0.00 0.84 0.84 98 1010.6
20260906031529 21 75 0.0 0.0 0.00 0.84 0.84 98 1010.5
20260906031007 21 75 0.0 0.0 0.00 0.84 0.84 98 1010.6
20260906030507 21 75 0.0 0.0 0.00 0.84 0.84 98 1010.5
20260906030007 21 75 0.0 0.0 0.00 0.84 0.84 98 1010.6
20260906025507 21 75 0.0 0.0 0.00 0.84 0.84 98 1010.6
20260906025007 21 75 0.0 0.0 0.00 0.84 0.84 98 1010.6
20260906024529 21 75 0.0 0.0 0.00 0.84 0.84 98 1010.6
20260906024029 21 75 0.0 0.0 0.00 0.84 0.84 97 1010.5
20260906023529 21 75 0.0 0.0 0.00 0.84 0.84 97 1010.4
20260906023007 21 75 0.0 0.0 0.00 0.84 0.84 98 1010.5
20260906022506 21 75 0.0 0.0 0.00 0.84 0.84 97 1010.4
20260906022006 22 75 0.0 0.0 0.00 0.84 0.84 97 1010.4
20260906021529 22 75 0.0 0.0 0.00 0.84 0.84 97 1010.4
20260906021007 22 75 0.0 0.0 0.00 0.84 0.84 97 1010.3
20260906020507 22 75 0.0 0.0 0.00 0.84 0.84 97 1010.3
20260906020009 22 75 0.0 0.0 0.00 0.84 0.84 97 1010.4
20260906015507 22 75 0.0 0.0 0.00 0.84 0.84 97 1010.4
20260906015007 22 75 0.0 0.0 0.00 0.84 0.84 97 1010.4
20260906014507 22 75 0.0 0.0 0.00 0.84 0.84 97 1010.4
20260906014007 22 75 0.0 0.0 0.00 0.84 0.84 97 1010.2
20260906013507 22 75 0.0 0.0 0.00 0.84 0.84 97 1010.2
20260906013007 22 75 0.0 0.0 0.00 0.84 0.84 97 1010.1
20260906012507 22 75 0.0 0.0 0.00 0.84 0.84 97 1010.1
20260906012007 22 75 0.0 0.0 0.00 0.84 0.84 96 1010.0
20260906011507 22 75 0.0 0.0 0.00 0.84 0.84 97 1010.0
20260906011008 22 75 0.0 0.0 0.00 0.84 0.84 96 1010.0
20260906010508 22 75 0.0 0.0 0.00 0.84 0.84 96 1009.8
20260906010008 22 75 0.0 0.0 0.00 0.84 0.84 96 1009.9
20260906005507 22 75 0.0 0.0 0.00 0.84 0.84 96 1009.9
20260906005008 22 75 0.0 0.0 0.00 0.84 0.84 96 1009.8
20260906004508 22 75 0.0 1.6 0.00 0.84 0.84 96 1009.7
20260906004007 22 75 0.0 1.6 0.00 0.84 0.84 96 1009.7
20260906003529 22 75 0.0 0.0 0.00 0.84 0.84 95 1009.6
20260906003008 22 75 0.0 0.0 0.00 0.84 0.84 95 1009.6
20260906002508 22 75 0.0 0.0 0.00 0.84 0.84 95 1009.4
20260906002007 22 75 0.0 0.0 0.00 0.84 0.84 95 1009.3
20260906001507 22 75 0.0 0.0 0.00 0.84 0.84 95 1009.3
20260906001030 23 75 0.0 0.0 0.00 0.84 0.84 95 1009.3
20260906000507 23 75 0.0 0.0 0.00 0.84 0.84 94 1009.3
20260905235507 23 75 0.0 0.0 0.00 0.84 0.84 94 1009.2
20260905235008 23 75 0.0 0.0 0.00 0.84 0.84 94 1009.3
20260905234530 23 75 0.0 0.0 0.00 0.84 0.84 94 1009.2
20260905234008 23 75 0.0 0.0 0.00 0.84 0.84 93 1009.2
20260905233529 23 75 0.0 1.6 0.00 0.84 0.84 93 1009.3
20260905233008 24 75 0.0 1.6 0.00 0.84 0.84 93 1009.2
20260905232508 24 75 0.0 0.0 0.00 0.84 0.84 92 1009.1
20260905232007 24 75 0.0 0.0 0.00 0.84 0.84 92 1009.2
20260905231508 24 75 0.0 0.0 0.00 0.84 0.84 92 1009.3
20260905231030 25 75 0.0 0.0 0.00 0.84 0.84 92 1009.2
20260905230508 25 75 0.0 0.0 0.00 0.84 0.84 91 1009.2
20260905230008 25 75 0.0 0.0 0.00 0.84 0.84 91 1009.1
20260905225507 25 75 0.0 0.0 0.00 0.84 0.84 90 1009.1
20260905225008 25 75 0.0 0.0 0.00 0.84 0.84 88 1009.2
20260905224507 25 75 0.0 0.0 0.00 0.84 0.84 88 1009.3
20260905224007 25 75 0.0 0.0 0.00 0.84 0.84 88 1009.2
20260905223530 25 75 0.0 0.0 0.00 0.84 0.84 87 1009.2
20260905223008 25 75 0.0 0.0 0.00 0.84 0.84 87 1009.1
20260905222507 25 75 0.0 0.0 0.00 0.84 0.84 85 1009.1
20260905221507 25 75 0.0 1.6 0.00 0.84 0.84 84 1009.1
20260905221008 25 75 0.0 1.6 0.00 0.84 0.84 87 1009.0
20260905220508 25 75 0.0 1.6 0.00 0.84 0.84 87 1009.0
20260905220031 25 74 0.0 1.6 0.00 0.84 0.84 87 1009.1
20260905215008 25 69 0.0 0.0 0.00 0.84 0.84 88 1009.4
20260905214508 25 69 0.0 0.0 0.00 0.84 0.84 89 1009.5
20260905214008 25 69 0.0 0.0 0.00 0.84 0.84 89 1009.7
20260905213530 25 69 0.0 0.0 0.00 0.84 0.84 88 1009.7
20260905213007 25 69 0.0 1.6 0.00 0.84 0.84 88 1009.7
20260905212507 25 69 0.0 0.0 0.00 0.84 0.84 87 1009.7
20260905212008 24 69 0.0 0.0 0.00 0.84 0.84 88 1009.8
20260905211530 24 69 0.0 0.0 0.00 0.84 0.84 88 1009.9
20260905211008 24 69 0.0 0.0 0.00 0.84 0.84 88 1009.9
20260905210508 24 69 0.0 0.0 0.00 0.84 0.84 89 1009.9
20260905210008 24 69 0.0 0.0 0.00 0.84 0.84 89 1009.8
20260905205508 24 69 0.0 0.0 0.00 0.84 0.84 91 1009.8
20260905205008 24 69 0.0 0.0 0.00 0.84 0.84 90 1009.7
20260905204508 23 69 0.0 0.0 0.00 0.84 0.84 90 1009.9
20260905204007 23 69 0.0 0.0 0.00 0.84 0.84 91 1009.8
20260905203507 23 68 0.0 0.0 0.00 0.84 0.84 91 1009.9
20260905203007 23 69 0.0 0.0 0.00 0.84 0.84 93 1009.7
20260905202508 23 68 0.0 0.0 0.00 0.84 0.84 93 1009.7
20260905202007 23 69 0.0 1.6 0.00 0.84 0.84 93 1009.7
20260905201507 22 64 0.0 3.2 0.00 0.84 0.84 93 1009.7
20260905201007 22 67 0.0 3.2 0.00 0.84 0.84 93 1009.8
20260905200507 22 68 0.0 1.6 0.00 0.84 0.84 93 1009.7
20260905200009 22 68 0.0 1.6 0.00 0.84 0.84 94 1009.7
20260905195507 22 84 0.0 1.6 0.00 0.84 0.84 95 1009.7
20260905195007 22 84 0.0 1.6 0.00 0.84 0.84 95 1010.0
20260905194507 22 84 0.0 1.6 0.00 0.84 0.84 95 1010.0
20260905194029 21 84 0.0 1.6 0.00 0.84 0.84 95 1010.2
20260905193008 21 80 0.0 1.6 0.03 0.84 0.84 96 1010.5
20260905192507 21 80 0.0 1.6 0.05 0.84 0.84 96 1010.6
20260905192007 21 80 0.0 1.6 0.13 0.84 0.84 96 1010.4
20260905191507 21 85 0.0 1.6 0.20 0.84 0.84 95 1009.8
20260905191007 21 85 0.0 1.6 0.64 0.84 0.84 95 1009.8
20260905190507 21 89 0.0 1.6 0.84 0.84 0.84 95 1009.5
20260905190008 21 91 0.0 0.0 0.84 0.84 0.84 93 1009.0
20260905185507 21 91 0.0 1.6 0.84 0.84 0.84 93 1008.7
20260905185008 21 91 0.0 1.6 0.84 0.84 0.84 93 1008.5
20260905184508 21 91 0.0 1.6 0.84 0.84 0.84 92 1008.8
20260905184007 21 75 0.0 1.6 0.84 0.84 0.84 91 1009.3
20260905183508 21 72 0.0 1.6 0.84 0.84 0.84 90 1009.4
20260905183007 21 72 0.0 3.2 0.81 0.81 0.81 89 1009.6
20260905182007 22 56 1.6 8.0 0.71 0.71 0.71 84 1010.7
20260905181508 23 63 3.2 20.9 0.58 0.58 0.58 79 1011.9
20260905181008 26 111 6.4 20.9 0.13 0.13 0.13 72 1012.0
20260905180530 29 105 6.4 20.9 0.00 0.00 0.00 60 1011.1
20260905180008 32 77 6.4 14.5 0.00 0.00 0.00 51 1010.3
20260905175507 33 89 0.0 4.8 0.00 0.00 0.00 55 1009.9
20260905175007 34 93 1.6 8.0 0.00 0.00 0.00 56 1009.8
20260905174008 35 83 0.0 6.4 0.00 0.00 0.00 55 1009.8
20260905173508 35 105 1.6 6.4 0.00 0.00 0.00 55 1009.7
20260905173008 35 70 1.6 6.4 0.00 0.00 0.00 56 1009.8
20260905172507 36 82 0.0 4.8 0.00 0.00 0.00 54 1010.0
20260905172007 36 116 1.6 4.8 0.00 0.00 0.00 53 1010.1
20260905171507 35 101 1.6 9.7 0.00 0.00 0.00 54 1010.2
20260905171007 35 103 1.6 9.7 0.00 0.00 0.00 55 1010.5
20260905170507 35 109 1.6 3.2 0.00 0.00 0.00 56 1010.6
20260905170031 35 106 1.6 3.2 0.00 0.00 0.00 56 1010.6
20260905165530 35 56 1.6 3.2 0.00 0.00 0.00 56 1010.7
20260905165007 35 94 0.0 6.4 0.00 0.00 0.00 57 1010.8
20260905164508 35 195 1.6 6.4 0.00 0.00 0.00 56 1010.8
20260905164008 35 94 1.6 6.4 0.00 0.00 0.00 56 1010.9
20260905163508 35 108 1.6 3.2 0.00 0.00 0.00 57 1010.9
20260905163008 35 96 0.0 3.2 0.00 0.00 0.00 57 1010.9
20260905162531 34 115 1.6 3.2 0.00 0.00 0.00 56 1011.0
20260905162030 34 83 0.0 1.6 0.00 0.00 0.00 58 1011.0
20260905161507 34 81 0.0 4.8 0.00 0.00 0.00 58 1011.1
20260905161008 34 74 0.0 4.8 0.00 0.00 0.00 58 1011.2
20260905160508 34 93 0.0 3.2 0.00 0.00 0.00 58 1011.2
20260905160008 34 105 0.0 3.2 0.00 0.00 0.00 58 1011.2
20260905155508 33 89 0.0 1.6 0.00 0.00 0.00 59 1011.2
20260905155030 33 81 0.0 1.6 0.00 0.00 0.00 59 1011.2
20260905154508 33 86 0.0 1.6 0.00 0.00 0.00 62 1011.3
20260905154008 33 86 0.0 3.2 0.00 0.00 0.00 62 1011.3
20260905153508 33 86 1.6 6.4 0.00 0.00 0.00 63 1011.4
20260905153008 32 49 1.6 6.4 0.00 0.00 0.00 63 1011.3
20260905152508 32 81 1.6 3.2 0.00 0.00 0.00 63 1011.4
20260905152008 32 59 1.6 3.2 0.00 0.00 0.00 63 1011.4
20260905151508 32 54 1.6 3.2 0.00 0.00 0.00 63 1011.4
20260905151008 32 80 0.0 3.2 0.00 0.00 0.00 64 1011.4
20260905150508 32 75 1.6 3.2 0.00 0.00 0.00 65 1011.5
20260905150008 32 68 0.0 3.2 0.00 0.00 0.00 66 1011.5
20260905145507 32 57 0.0 3.2 0.00 0.00 0.00 67 1011.6
20260905145030 32 82 0.0 3.2 0.00 0.00 0.00 66 1011.6
20260905144530 32 82 1.6 3.2 0.00 0.00 0.00 68 1011.7
20260905144007 31 58 1.6 3.2 0.00 0.00 0.00 69 1011.6
20260905143508 31 76 1.6 1.6 0.00 0.00 0.00 69 1011.7
20260905143009 31 76 0.0 1.6 0.00 0.00 0.00 72 1011.6
20260905142508 30 79 0.0 1.6 0.00 0.00 0.00 72 1011.6
20260905142008 30 79 0.0 1.6 0.00 0.00 0.00 74 1011.6
20260905141508 30 79 0.0 1.6 0.00 0.00 0.00 74 1011.5
20260905141008 30 72 0.0 1.6 0.00 0.00 0.00 74 1011.5
20260905140508 29 79 0.0 1.6 0.00 0.00 0.00 76 1011.5
20260905140007 29 72 0.0 3.2 0.00 0.00 0.00 77 1011.6
20260905135508 28 70 0.0 3.2 0.00 0.00 0.00 77 1011.6
20260905135030 28 79 0.0 0.0 0.00 0.00 0.00 79 1011.6
20260905134508 28 79 0.0 0.0 0.00 0.00 0.00 79 1011.7
20260905134008 28 79 0.0 1.6 0.00 0.00 0.00 80 1011.7
20260905133508 27 79 0.0 1.6 0.00 0.00 0.00 81 1011.7
20260905133008 27 79 0.0 0.0 0.00 0.00 0.00 83 1011.7
20260905132508 27 79 0.0 0.0 0.00 0.00 0.00 83 1011.7
20260905132008 26 79 0.0 1.6 0.00 0.00 0.00 84 1011.7
20260905131531 26 79 0.0 1.6 0.00 0.00 0.00 86 1011.7
20260905131030 26 79 0.0 1.6 0.00 0.00 0.00 87 1011.8
20260905130508 25 79 0.0 1.6 0.00 0.00 0.00 88 1011.8
20260905130030 25 79 0.0 1.6 0.00 0.00 0.00 89 1011.8
20260905125508 25 79 0.0 0.0 0.00 0.00 0.00 91 1011.9
20260905125008 24 79 0.0 1.6 0.00 0.00 0.00 92 1011.9
20260905124508 24 79 0.0 1.6 0.00 0.00 0.00 94 1011.9
20260905124008 23 79 0.0 0.0 0.00 0.00 0.00 95 1011.9
20260905123530 23 79 0.0 0.0 0.00 0.00 0.00 97 1012.0
20260905123008 22 79 0.0 0.0 0.00 0.00 0.00 97 1012.0
20260905122508 22 79 0.0 0.0 0.00 0.00 0.00 98 1011.9
20260905122008 22 79 0.0 0.0 0.00 0.00 0.00 98 1012.0
20260905121508 22 79 0.0 0.0 0.00 0.00 0.00 99 1011.9
20260905121008 21 79 0.0 0.0 0.00 0.00 0.00 98 1011.9
20260905120509 21 79 0.0 0.0 0.00 0.00 0.00 98 1011.9
20260905120030 21 79 0.0 0.0 0.00 0.00 0.00 98 1011.8
20260905115508 21 79 0.0 1.6 0.00 0.00 0.00 98 1011.8
20260905115008 21 79 0.0 1.6 0.00 0.00 0.00 98 1011.7
20260905114508 21 79 0.0 0.0 0.00 0.00 0.00 98 1011.7
20260905114008 21 79 0.0 0.0 0.00 0.00 0.00 98 1011.6
20260905113509 20 79 0.0 0.0 0.00 0.00 0.00 98 1011.6
20260905113009 20 79 0.0 0.0 0.00 0.00 0.00 98 1011.6
20260905112508 20 79 0.0 0.0 0.00 0.00 0.00 98 1011.5
20260905112008 20 79 0.0 0.0 0.00 0.00 0.00 98 1011.5
20260905111508 20 79 0.0 0.0 0.00 0.00 0.00 97 1011.4
20260905111008 20 79 0.0 0.0 0.00 0.00 0.00 97 1011.4
20260905110508 20 79 0.0 0.0 0.00 0.00 0.00 97 1011.3
20260905110008 20 79 0.0 0.0 0.00 0.00 0.00 97 1011.3
20260905105508 20 79 0.0 0.0 0.00 0.00 0.00 97 1011.3
20260905105030 20 79 0.0 0.0 0.00 0.00 0.00 97 1011.2
20260905104508 20 79 0.0 0.0 0.00 0.00 0.00 97 1011.2